| time (UTC) | temp F | wind direction | speed MPH | gust MPH | rain 1hr in | rain 24hr in | rain mn in | humidity % | barometer mb |
| 20260904170427 | 61 | 273 | 8.0 | 13.0 | 0.00 | 0.02 | 0.00 | 82 | 1014.6 |
| 20260904165931 | 61 | 287 | 7.0 | 12.0 | 0.00 | 0.02 | 0.00 | 82 | 1014.6 |
| 20260904165417 | 61 | 275 | 7.0 | 13.0 | 0.00 | 0.02 | 0.00 | 82 | 1014.6 |
| 20260904164924 | 61 | 295 | 4.0 | 11.0 | 0.00 | 0.02 | 0.00 | 83 | 1014.7 |
| 20260904164426 | 60 | 295 | 5.0 | 12.0 | 0.00 | 0.02 | 0.00 | 83 | 1014.6 |
| 20260904163931 | 60 | 264 | 7.0 | 15.0 | 0.00 | 0.02 | 0.00 | 83 | 1014.5 |
| 20260904163436 | 60 | 271 | 10.0 | 15.0 | 0.00 | 0.02 | 0.00 | 81 | 1014.4 |
| 20260904162920 | 61 | 305 | 7.0 | 14.0 | 0.00 | 0.02 | 0.00 | 81 | 1014.4 |
| 20260904162425 | 61 | 306 | 7.0 | 14.0 | 0.00 | 0.02 | 0.00 | 81 | 1014.3 |
| 20260904161930 | 61 | 265 | 7.0 | 13.0 | 0.00 | 0.02 | 0.00 | 80 | 1014.2 |
| 20260904161432 | 61 | 296 | 6.0 | 12.0 | 0.00 | 0.02 | 0.00 | 80 | 1014.2 |
| 20260904160916 | 61 | 273 | 7.0 | 12.0 | 0.00 | 0.02 | 0.00 | 80 | 1014.1 |
| 20260904160438 | 61 | 287 | 6.0 | 11.0 | 0.00 | 0.02 | 0.00 | 80 | 1014.2 |
| 20260904155920 | 61 | 318 | 6.0 | 11.0 | 0.00 | 0.02 | 0.00 | 80 | 1014.2 |
| 20260904155420 | 61 | 284 | 5.0 | 12.0 | 0.00 | 0.02 | 0.00 | 80 | 1014.1 |
| 20260904154923 | 61 | 294 | 8.0 | 12.0 | 0.00 | 0.02 | 0.00 | 80 | 1014.1 |
| 20260904154425 | 61 | 289 | 8.0 | 12.0 | 0.00 | 0.02 | 0.00 | 80 | 1014.1 |
| 20260904153925 | 61 | 296 | 5.0 | 10.0 | 0.00 | 0.02 | 0.00 | 81 | 1014.0 |
| 20260904153423 | 61 | 350 | 4.0 | 10.0 | 0.00 | 0.02 | 0.00 | 81 | 1014.0 |
| 20260904152955 | 61 | 306 | 7.0 | 10.0 | 0.00 | 0.02 | 0.00 | 82 | 1013.9 |
| 20260904152418 | 60 | 263 | 5.0 | 9.0 | 0.00 | 0.02 | 0.00 | 83 | 1014.0 |
| 20260904151923 | 60 | 304 | 5.0 | 9.0 | 0.00 | 0.02 | 0.00 | 83 | 1013.9 |
| 20260904151446 | 60 | 285 | 4.0 | 9.0 | 0.00 | 0.02 | 0.00 | 83 | 1013.9 |
| 20260904150928 | 60 | 226 | 5.0 | 9.0 | 0.00 | 0.02 | 0.00 | 83 | 1014.0 |
| 20260904150429 | 60 | 282 | 4.0 | 9.0 | 0.00 | 0.02 | 0.00 | 83 | 1013.8 |
| 20260904145934 | 59 | 289 | 6.0 | 9.0 | 0.00 | 0.02 | 0.00 | 83 | 1013.8 |
| 20260904145417 | 59 | 275 | 4.0 | 9.0 | 0.00 | 0.02 | 0.00 | 84 | 1013.7 |
| 20260904144922 | 59 | 277 | 5.0 | 9.0 | 0.00 | 0.02 | 0.00 | 84 | 1013.6 |
| 20260904144426 | 59 | 280 | 6.0 | 9.0 | 0.00 | 0.02 | 0.00 | 84 | 1013.5 |
| 20260904143931 | 59 | 235 | 4.0 | 9.0 | 0.00 | 0.02 | 0.00 | 84 | 1013.5 |
| 20260904143417 | 59 | 228 | 5.0 | 9.0 | 0.00 | 0.02 | 0.00 | 84 | 1013.4 |
| 20260904142923 | 59 | 282 | 4.0 | 8.0 | 0.00 | 0.02 | 0.00 | 84 | 1013.3 |
| 20260904142443 | 58 | 237 | 4.0 | 7.0 | 0.00 | 0.02 | 0.00 | 84 | 1013.2 |
| 20260904141926 | 58 | 261 | 5.0 | 7.0 | 0.00 | 0.02 | 0.00 | 84 | 1013.2 |
| 20260904141431 | 58 | 226 | 4.0 | 8.0 | 0.00 | 0.02 | 0.00 | 84 | 1013.1 |
| 20260904140936 | 58 | 207 | 5.0 | 8.0 | 0.00 | 0.02 | 0.00 | 84 | 1013.1 |
| 20260904140441 | 58 | 313 | 4.0 | 7.0 | 0.00 | 0.02 | 0.00 | 84 | 1013.0 |
| 20260904135924 | 58 | 258 | 4.0 | 7.0 | 0.00 | 0.02 | 0.00 | 84 | 1013.0 |
| 20260904135426 | 58 | 240 | 5.0 | 7.0 | 0.00 | 0.02 | 0.00 | 84 | 1012.9 |
| 20260904134929 | 58 | 273 | 4.0 | 6.0 | 0.00 | 0.02 | 0.00 | 84 | 1012.9 |
| 20260904134435 | 58 | 280 | 4.0 | 6.0 | 0.00 | 0.02 | 0.00 | 84 | 1012.9 |
| 20260904133951 | 58 | 261 | 2.0 | 6.0 | 0.00 | 0.02 | 0.00 | 84 | 1012.9 |
| 20260904133417 | 58 | 286 | 4.0 | 7.0 | 0.00 | 0.02 | 0.00 | 85 | 1012.9 |
| 20260904132921 | 58 | 275 | 4.0 | 7.0 | 0.00 | 0.02 | 0.00 | 85 | 1012.9 |
| 20260904132427 | 59 | 271 | 4.0 | 9.0 | 0.00 | 0.02 | 0.00 | 85 | 1012.7 |
| 20260904131929 | 59 | 247 | 5.0 | 9.0 | 0.00 | 0.02 | 0.00 | 85 | 1012.7 |
| 20260904131437 | 59 | 276 | 6.0 | 9.0 | 0.00 | 0.02 | 0.00 | 85 | 1012.8 |
| 20260904130954 | 59 | 290 | 6.0 | 9.0 | 0.00 | 0.02 | 0.00 | 85 | 1012.7 |
| 20260904130421 | 59 | 285 | 5.0 | 9.0 | 0.00 | 0.02 | 0.00 | 85 | 1012.7 |
| 20260904125946 | 59 | 284 | 6.0 | 9.0 | 0.00 | 0.02 | 0.00 | 85 | 1012.7 |
| 20260904125431 | 59 | 256 | 3.0 | 11.0 | 0.00 | 0.02 | 0.00 | 85 | 1012.7 |
| 20260904124932 | 59 | 298 | 6.0 | 11.0 | 0.00 | 0.02 | 0.00 | 84 | 1012.7 |
| 20260904124420 | 59 | 284 | 6.0 | 9.0 | 0.00 | 0.02 | 0.00 | 84 | 1012.7 |
| 20260904123927 | 59 | 263 | 5.0 | 7.0 | 0.00 | 0.02 | 0.00 | 84 | 1012.6 |
| 20260904123435 | 59 | 271 | 4.0 | 8.0 | 0.00 | 0.02 | 0.00 | 84 | 1012.7 |
| 20260904122924 | 59 | 244 | 4.0 | 8.0 | 0.00 | 0.02 | 0.00 | 84 | 1012.7 |
| 20260904122430 | 59 | 268 | 5.0 | 9.0 | 0.00 | 0.02 | 0.00 | 84 | 1012.7 |
| 20260904121939 | 59 | 273 | 5.0 | 9.0 | 0.00 | 0.02 | 0.00 | 84 | 1012.7 |
| 20260904121426 | 59 | 268 | 4.0 | 9.0 | 0.00 | 0.02 | 0.00 | 85 | 1012.7 |
| 20260904120929 | 59 | 215 | 4.0 | 9.0 | 0.00 | 0.02 | 0.00 | 85 | 1012.7 |
| 20260904120436 | 59 | 270 | 6.0 | 8.0 | 0.00 | 0.02 | 0.00 | 85 | 1012.7 |
| 20260904115940 | 59 | 275 | 4.0 | 8.0 | 0.00 | 0.02 | 0.00 | 85 | 1012.7 |
| 20260904115425 | 59 | 252 | 5.0 | 9.0 | 0.00 | 0.02 | 0.00 | 85 | 1012.6 |
| 20260904114931 | 59 | 282 | 7.0 | 9.0 | 0.00 | 0.02 | 0.00 | 85 | 1012.6 |
| 20260904114417 | 59 | 268 | 5.0 | 7.0 | 0.00 | 0.02 | 0.00 | 85 | 1012.6 |
| 20260904113925 | 59 | 273 | 5.0 | 6.0 | 0.00 | 0.02 | 0.00 | 85 | 1012.6 |
| 20260904113456 | 59 | 261 | 5.0 | 7.0 | 0.00 | 0.02 | 0.00 | 86 | 1012.6 |
| 20260904112921 | 59 | 270 | 5.0 | 7.0 | 0.00 | 0.02 | 0.00 | 86 | 1012.7 |
| 20260904112430 | 59 | 273 | 5.0 | 8.0 | 0.00 | 0.02 | 0.00 | 86 | 1012.7 |
| 20260904111936 | 59 | 258 | 6.0 | 9.0 | 0.00 | 0.02 | 0.00 | 86 | 1012.6 |
| 20260904111422 | 59 | 284 | 5.0 | 9.0 | 0.00 | 0.02 | 0.00 | 86 | 1012.7 |
| 20260904110949 | 59 | 280 | 6.0 | 10.0 | 0.00 | 0.02 | 0.00 | 86 | 1012.7 |
| 20260904110430 | 59 | 295 | 6.0 | 9.0 | 0.00 | 0.02 | 0.00 | 86 | 1012.7 |
| 20260904105917 | 59 | 282 | 5.0 | 9.0 | 0.00 | 0.02 | 0.00 | 87 | 1012.6 |
| 20260904105425 | 59 | 289 | 5.0 | 9.0 | 0.00 | 0.02 | 0.00 | 87 | 1012.6 |
| 20260904104933 | 59 | 268 | 4.0 | 8.0 | 0.00 | 0.02 | 0.00 | 87 | 1012.6 |
| 20260904104447 | 59 | 254 | 3.0 | 8.0 | 0.00 | 0.02 | 0.00 | 87 | 1012.6 |
| 20260904103934 | 59 | 222 | 3.0 | 8.0 | 0.00 | 0.02 | 0.00 | 87 | 1012.5 |
| 20260904103442 | 59 | 273 | 4.0 | 8.0 | 0.00 | 0.02 | 0.00 | 87 | 1012.5 |
| 20260904102952 | 59 | 230 | 5.0 | 8.0 | 0.00 | 0.02 | 0.00 | 87 | 1012.5 |
| 20260904102445 | 59 | 282 | 5.0 | 10.0 | 0.00 | 0.02 | 0.00 | 87 | 1012.6 |
| 20260904101930 | 59 | 256 | 5.0 | 10.0 | 0.00 | 0.02 | 0.00 | 87 | 1012.5 |
| 20260904101417 | 60 | 263 | 5.0 | 10.0 | 0.00 | 0.02 | 0.00 | 87 | 1012.5 |
| 20260904100924 | 60 | 275 | 4.0 | 10.0 | 0.00 | 0.02 | 0.00 | 87 | 1012.5 |
| 20260904100430 | 60 | 275 | 7.0 | 10.0 | 0.00 | 0.02 | 0.00 | 87 | 1012.5 |
| 20260904095935 | 60 | 285 | 5.0 | 10.0 | 0.00 | 0.02 | 0.00 | 87 | 1012.5 |
| 20260904095423 | 60 | 282 | 5.0 | 10.0 | 0.00 | 0.02 | 0.00 | 86 | 1012.4 |
| 20260904094945 | 60 | 270 | 5.0 | 10.0 | 0.00 | 0.02 | 0.00 | 86 | 1012.4 |
| 20260904094430 | 60 | 292 | 4.0 | 11.0 | 0.00 | 0.02 | 0.00 | 86 | 1012.4 |
| 20260904093938 | 60 | 277 | 3.0 | 7.0 | 0.00 | 0.02 | 0.00 | 86 | 1012.4 |
| 20260904093423 | 60 | 244 | 2.0 | 5.0 | 0.00 | 0.02 | 0.00 | 86 | 1012.3 |
| 20260904092927 | 60 | 285 | 1.0 | 5.0 | 0.00 | 0.02 | 0.00 | 86 | 1012.4 |
| 20260904092433 | 60 | 330 | 2.0 | 7.0 | 0.00 | 0.02 | 0.00 | 86 | 1012.4 |
| 20260904091936 | 61 | 280 | 4.0 | 7.0 | 0.00 | 0.02 | 0.00 | 86 | 1012.5 |
| 20260904091423 | 61 | 337 | 4.0 | 8.0 | 0.00 | 0.02 | 0.00 | 86 | 1012.4 |
| 20260904090930 | 61 | 330 | 5.0 | 8.0 | 0.00 | 0.02 | 0.00 | 86 | 1012.3 |
| 20260904090437 | 61 | 349 | 3.0 | 7.0 | 0.00 | 0.02 | 0.00 | 86 | 1012.3 |
| 20260904085920 | 61 | 251 | 4.0 | 13.0 | 0.00 | 0.02 | 0.00 | 86 | 1012.3 |
| 20260904085449 | 61 | 295 | 7.0 | 13.0 | 0.00 | 0.02 | 0.00 | 86 | 1012.3 |
| 20260904084934 | 61 | 268 | 5.0 | 16.0 | 0.00 | 0.02 | 0.00 | 86 | 1012.3 |
| 20260904084419 | 61 | 296 | 7.0 | 16.0 | 0.00 | 0.02 | 0.00 | 86 | 1012.3 |
| 20260904083956 | 61 | 254 | 7.0 | 15.0 | 0.00 | 0.02 | 0.00 | 86 | 1012.2 |
| 20260904083441 | 61 | 239 | 7.0 | 13.0 | 0.00 | 0.02 | 0.00 | 86 | 1012.3 |
| 20260904082927 | 61 | 268 | 7.0 | 13.0 | 0.00 | 0.02 | 0.00 | 86 | 1012.2 |
| 20260904082432 | 61 | 282 | 6.0 | 12.0 | 0.00 | 0.02 | 0.00 | 86 | 1012.1 |
| 20260904081918 | 61 | 275 | 5.0 | 15.0 | 0.00 | 0.02 | 0.00 | 86 | 1012.1 |
| 20260904081422 | 61 | 290 | 9.0 | 18.0 | 0.00 | 0.02 | 0.00 | 86 | 1012.0 |
| 20260904080924 | 61 | 265 | 9.0 | 18.0 | 0.00 | 0.02 | 0.00 | 86 | 1012.1 |
| 20260904080428 | 61 | 237 | 7.0 | 15.0 | 0.00 | 0.02 | 0.00 | 86 | 1012.1 |
| 20260904075916 | 61 | 313 | 9.0 | 16.0 | 0.00 | 0.02 | 0.00 | 86 | 1012.1 |
| 20260904075425 | 61 | 264 | 10.0 | 16.0 | 0.00 | 0.02 | 0.00 | 86 | 1012.0 |
| 20260904074931 | 61 | 292 | 9.0 | 16.0 | 0.00 | 0.02 | 0.00 | 86 | 1012.0 |
| 20260904074437 | 61 | 273 | 9.0 | 16.0 | 0.00 | 0.02 | 0.00 | 86 | 1011.9 |
| 20260904073923 | 61 | 256 | 9.0 | 16.0 | 0.00 | 0.02 | 0.00 | 86 | 1012.1 |
| 20260904073426 | 61 | 285 | 9.0 | 15.0 | 0.00 | 0.02 | 0.00 | 85 | 1011.9 |
| 20260904072930 | 61 | 285 | 11.0 | 17.0 | 0.00 | 0.02 | 0.00 | 86 | 1011.9 |
| 20260904072439 | 61 | 287 | 11.0 | 17.0 | 0.00 | 0.02 | 0.00 | 86 | 1011.9 |
| 20260904071922 | 61 | 230 | 9.0 | 16.0 | 0.00 | 0.02 | 0.00 | 86 | 1012.0 |
| 20260904071430 | 61 | 277 | 9.0 | 15.0 | 0.00 | 0.02 | 0.00 | 86 | 1012.0 |
| 20260904070938 | 61 | 292 | 9.0 | 15.0 | 0.00 | 0.02 | 0.00 | 86 | 1012.0 |
| 20260904070442 | 61 | 295 | 8.0 | 13.0 | 0.00 | 0.02 | 0.00 | 86 | 1011.9 |
| 20260904065921 | 62 | 259 | 7.0 | 16.0 | 0.00 | 0.02 | 0.02 | 86 | 1012.0 |
| 20260904065457 | 62 | 277 | 9.0 | 16.0 | 0.00 | 0.02 | 0.02 | 85 | 1011.9 |
| 20260904064922 | 62 | 275 | 9.0 | 17.0 | 0.00 | 0.02 | 0.02 | 85 | 1012.0 |
| 20260904064427 | 62 | 259 | 9.0 | 17.0 | 0.00 | 0.02 | 0.02 | 85 | 1012.0 |
| 20260904063935 | 62 | 249 | 9.0 | 15.0 | 0.00 | 0.02 | 0.02 | 85 | 1011.8 |
| 20260904063422 | 62 | 302 | 9.0 | 16.0 | 0.00 | 0.02 | 0.02 | 85 | 1011.8 |
| 20260904062944 | 62 | 275 | 10.0 | 15.0 | 0.00 | 0.02 | 0.02 | 85 | 1011.9 |
| 20260904062431 | 62 | 249 | 8.0 | 13.0 | 0.00 | 0.02 | 0.02 | 85 | 1011.8 |
| 20260904061917 | 62 | 276 | 8.0 | 13.0 | 0.00 | 0.02 | 0.02 | 86 | 1011.8 |
| 20260904061423 | 62 | 296 | 7.0 | 11.0 | 0.00 | 0.02 | 0.02 | 86 | 1011.8 |
| 20260904060931 | 62 | 278 | 7.0 | 10.0 | 0.00 | 0.02 | 0.02 | 87 | 1011.8 |
| 20260904060435 | 62 | 261 | 5.0 | 8.0 | 0.00 | 0.02 | 0.02 | 87 | 1011.8 |
| 20260904055937 | 62 | 276 | 5.0 | 9.0 | 0.00 | 0.02 | 0.02 | 87 | 1011.9 |
| 20260904055450 | 61 | 256 | 5.0 | 8.0 | 0.00 | 0.02 | 0.02 | 87 | 1011.9 |
| 20260904054917 | 61 | 237 | 5.0 | 8.0 | 0.00 | 0.02 | 0.02 | 87 | 1012.0 |
| 20260904054425 | 61 | 280 | 4.0 | 13.0 | 0.00 | 0.02 | 0.02 | 87 | 1012.1 |
| 20260904053933 | 61 | 256 | 5.0 | 13.0 | 0.01 | 0.02 | 0.02 | 87 | 1012.2 |
| 20260904053419 | 61 | 278 | 8.0 | 13.0 | 0.01 | 0.02 | 0.02 | 87 | 1012.3 |
| 20260904052927 | 61 | 261 | 8.0 | 13.0 | 0.01 | 0.02 | 0.02 | 87 | 1012.4 |
| 20260904052436 | 61 | 257 | 7.0 | 14.0 | 0.01 | 0.02 | 0.02 | 87 | 1012.4 |
| 20260904051922 | 61 | 237 | 7.0 | 13.0 | 0.01 | 0.02 | 0.02 | 87 | 1012.5 |
| 20260904051421 | 61 | 252 | 7.0 | 13.0 | 0.01 | 0.02 | 0.02 | 88 | 1012.5 |
| 20260904050928 | 61 | 263 | 7.0 | 12.0 | 0.01 | 0.02 | 0.02 | 88 | 1012.5 |
| 20260904050434 | 61 | 275 | 6.0 | 12.0 | 0.01 | 0.02 | 0.02 | 88 | 1012.5 |
| 20260904045920 | 61 | 285 | 8.0 | 12.0 | 0.01 | 0.02 | 0.02 | 88 | 1012.5 |
| 20260904045432 | 61 | 311 | 8.0 | 13.0 | 0.01 | 0.02 | 0.02 | 88 | 1012.5 |
| 20260904044936 | 61 | 282 | 5.0 | 13.0 | 0.01 | 0.02 | 0.02 | 88 | 1012.6 |
| 20260904044440 | 61 | 276 | 6.0 | 13.0 | 0.01 | 0.02 | 0.02 | 88 | 1012.6 |
| 20260904043923 | 61 | 268 | 5.0 | 13.0 | 0.00 | 0.01 | 0.01 | 88 | 1012.6 |
| 20260904043429 | 62 | 316 | 7.0 | 11.0 | 0.00 | 0.01 | 0.01 | 88 | 1012.6 |
| 20260904042916 | 62 | 280 | 8.0 | 11.0 | 0.00 | 0.01 | 0.01 | 88 | 1012.6 |
| 20260904042424 | 62 | 268 | 5.0 | 12.0 | 0.00 | 0.01 | 0.01 | 88 | 1012.5 |
| 20260904041931 | 62 | 326 | 6.0 | 12.0 | 0.00 | 0.01 | 0.01 | 88 | 1012.5 |
| 20260904041434 | 62 | 282 | 5.0 | 10.0 | 0.00 | 0.01 | 0.01 | 88 | 1012.4 |
| 20260904040921 | 62 | 282 | 6.0 | 8.0 | 0.00 | 0.01 | 0.01 | 88 | 1012.3 |
| 20260904040426 | 62 | 278 | 3.0 | 5.0 | 0.01 | 0.01 | 0.01 | 88 | 1012.3 |
| 20260904035928 | 62 | 215 | 2.0 | 4.0 | 0.01 | 0.01 | 0.01 | 88 | 1012.2 |
| 20260904035434 | 62 | 268 | 1.0 | 2.0 | 0.01 | 0.01 | 0.01 | 88 | 1012.2 |
| 20260904034921 | 62 | 222 | 0.0 | 3.0 | 0.01 | 0.01 | 0.01 | 88 | 1012.2 |
| 20260904034429 | 62 | 215 | 1.0 | 3.0 | 0.01 | 0.01 | 0.01 | 88 | 1012.2 |
| 20260904033935 | 62 | 285 | 2.0 | 4.0 | 0.01 | 0.01 | 0.01 | 88 | 1012.0 |
| 20260904033421 | 62 | 261 | 3.0 | 5.0 | 0.01 | 0.01 | 0.01 | 87 | 1012.0 |
| 20260904032923 | 62 | 275 | 2.0 | 7.0 | 0.01 | 0.01 | 0.01 | 87 | 1012.0 |
| 20260904032425 | 62 | 290 | 4.0 | 7.0 | 0.01 | 0.01 | 0.01 | 87 | 1012.0 |
| 20260904031931 | 62 | 271 | 4.0 | 7.0 | 0.01 | 0.01 | 0.01 | 87 | 1011.9 |
| 20260904031418 | 62 | 212 | 3.0 | 7.0 | 0.01 | 0.01 | 0.01 | 87 | 1011.9 |
| 20260904030928 | 62 | 252 | 3.0 | 7.0 | 0.01 | 0.01 | 0.01 | 87 | 1011.9 |
| 20260904030435 | 62 | 290 | 2.0 | 7.0 | 0.00 | 0.00 | 0.00 | 87 | 1011.8 |
| 20260904025921 | 62 | 283 | 3.0 | 10.0 | 0.00 | 0.00 | 0.00 | 87 | 1011.8 |
| 20260904025424 | 62 | 289 | 4.0 | 12.0 | 0.00 | 0.00 | 0.00 | 87 | 1011.9 |
| 20260904024933 | 62 | 273 | 7.0 | 13.0 | 0.00 | 0.00 | 0.00 | 87 | 1011.9 |
| 20260904024435 | 62 | 329 | 7.0 | 13.0 | 0.00 | 0.00 | 0.00 | 87 | 1012.0 |
| 20260904023950 | 62 | 301 | 7.0 | 14.0 | 0.00 | 0.00 | 0.00 | 87 | 1012.0 |
| 20260904023436 | 62 | 268 | 7.0 | 14.0 | 0.00 | 0.00 | 0.00 | 87 | 1012.0 |
| 20260904022923 | 62 | 283 | 8.0 | 11.0 | 0.00 | 0.00 | 0.00 | 87 | 1012.1 |
| 20260904022431 | 62 | 310 | 6.0 | 14.0 | 0.00 | 0.00 | 0.00 | 86 | 1012.1 |
| 20260904021918 | 62 | 270 | 9.0 | 15.0 | 0.00 | 0.00 | 0.00 | 86 | 1012.1 |
| 20260904021423 | 62 | 284 | 8.0 | 15.0 | 0.00 | 0.00 | 0.00 | 86 | 1012.1 |
| 20260904020929 | 63 | 305 | 8.0 | 15.0 | 0.00 | 0.00 | 0.00 | 86 | 1012.2 |
| 20260904020436 | 63 | 242 | 7.0 | 13.0 | 0.00 | 0.00 | 0.00 | 86 | 1012.1 |
| 20260904015917 | 63 | 274 | 8.0 | 12.0 | 0.00 | 0.00 | 0.00 | 86 | 1012.0 |
| 20260904015425 | 64 | 256 | 8.0 | 12.0 | 0.00 | 0.00 | 0.00 | 86 | 1012.0 |
| 20260904014931 | 64 | 280 | 6.0 | 13.0 | 0.00 | 0.00 | 0.00 | 85 | 1012.1 |
| 20260904014436 | 64 | 273 | 3.0 | 16.0 | 0.00 | 0.00 | 0.00 | 85 | 1012.0 |
| 20260904013953 | 64 | 219 | 7.0 | 16.0 | 0.00 | 0.00 | 0.00 | 85 | 1012.0 |
| 20260904013420 | 64 | 221 | 5.0 | 15.0 | 0.00 | 0.00 | 0.00 | 85 | 1012.1 |
| 20260904012922 | 64 | 238 | 8.0 | 17.0 | 0.00 | 0.00 | 0.00 | 84 | 1012.1 |
| 20260904012430 | 65 | 219 | 9.0 | 17.0 | 0.00 | 0.00 | 0.00 | 84 | 1012.1 |
| 20260904011936 | 66 | 242 | 4.0 | 18.0 | 0.00 | 0.00 | 0.00 | 84 | 1012.0 |
| 20260904011422 | 66 | 276 | 6.0 | 17.0 | 0.00 | 0.00 | 0.00 | 84 | 1012.1 |
| 20260904010929 | 66 | 263 | 8.0 | 17.0 | 0.00 | 0.00 | 0.00 | 83 | 1012.0 |
| 20260904010436 | 66 | 206 | 7.0 | 13.0 | 0.00 | 0.00 | 0.00 | 83 | 1012.1 |
| 20260904005952 | 66 | 277 | 6.0 | 17.0 | 0.00 | 0.00 | 0.00 | 83 | 1012.2 |
| 20260904005436 | 66 | 305 | 10.0 | 17.0 | 0.00 | 0.00 | 0.00 | 82 | 1012.3 |
| 20260904004921 | 66 | 299 | 6.0 | 17.0 | 0.00 | 0.00 | 0.00 | 82 | 1012.3 |
| 20260904004444 | 67 | 230 | 7.0 | 20.0 | 0.00 | 0.00 | 0.00 | 82 | 1012.2 |
| 20260904003931 | 67 | 227 | 7.0 | 19.0 | 0.00 | 0.00 | 0.00 | 82 | 1012.2 |
| 20260904003418 | 67 | 195 | 8.0 | 21.0 | 0.00 | 0.00 | 0.00 | 82 | 1012.2 |
| 20260904002924 | 67 | 210 | 13.0 | 21.0 | 0.00 | 0.00 | 0.00 | 81 | 1012.3 |
| 20260904002428 | 67 | 207 | 8.0 | 19.0 | 0.00 | 0.00 | 0.00 | 81 | 1012.2 |
| 20260904001932 | 67 | 183 | 9.0 | 19.0 | 0.00 | 0.00 | 0.00 | 81 | 1012.3 |
| 20260904001418 | 67 | 194 | 9.0 | 17.0 | 0.00 | 0.00 | 0.00 | 81 | 1012.2 |
| 20260904000944 | 67 | 229 | 6.0 | 19.0 | 0.00 | 0.00 | 0.00 | 81 | 1012.5 |
| 20260904000432 | 67 | 245 | 8.0 | 20.0 | 0.00 | 0.00 | 0.00 | 80 | 1012.4 |
| 20260903235936 | 68 | 219 | 9.0 | 20.0 | 0.00 | 0.00 | 0.00 | 78 | 1012.4 |
| 20260903235424 | 68 | 203 | 4.0 | 16.0 | 0.00 | 0.00 | 0.00 | 77 | 1012.6 |
| 20260903234930 | 69 | 249 | 7.0 | 16.0 | 0.00 | 0.00 | 0.00 | 76 | 1012.5 |
| 20260903234432 | 69 | 214 | 5.0 | 13.0 | 0.00 | 0.00 | 0.00 | 75 | 1012.5 |
| 20260903233916 | 69 | 230 | 8.0 | 19.0 | 0.00 | 0.00 | 0.00 | 75 | 1012.5 |
| 20260903233421 | 69 | 259 | 9.0 | 20.0 | 0.00 | 0.00 | 0.00 | 75 | 1012.5 |
| 20260903232929 | 69 | 242 | 6.0 | 18.0 | 0.00 | 0.00 | 0.00 | 75 | 1012.6 |
| 20260903232435 | 69 | 220 | 9.0 | 18.0 | 0.00 | 0.00 | 0.00 | 75 | 1012.7 |
| 20260903231941 | 69 | 257 | 8.0 | 17.0 | 0.00 | 0.00 | 0.00 | 74 | 1012.6 |
| 20260903231442 | 69 | 249 | 9.0 | 19.0 | 0.00 | 0.00 | 0.00 | 74 | 1012.7 |
| 20260903230926 | 69 | 201 | 10.0 | 19.0 | 0.00 | 0.00 | 0.00 | 74 | 1012.9 |
| 20260903230434 | 70 | 242 | 8.0 | 18.0 | 0.00 | 0.00 | 0.00 | 74 | 1013.0 |
| 20260903225918 | 70 | 230 | 5.0 | 18.0 | 0.00 | 0.00 | 0.00 | 75 | 1013.1 |
| 20260903225426 | 70 | 226 | 8.0 | 17.0 | 0.00 | 0.00 | 0.00 | 74 | 1013.1 |
| 20260903224933 | 70 | 261 | 7.0 | 13.0 | 0.00 | 0.00 | 0.00 | 75 | 1013.1 |
| 20260903224422 | 69 | 268 | 6.0 | 20.0 | 0.00 | 0.00 | 0.00 | 75 | 1013.2 |
| 20260903223929 | 69 | 219 | 12.0 | 20.0 | 0.00 | 0.00 | 0.00 | 75 | 1013.2 |
| 20260903223459 | 69 | 217 | 8.0 | 19.0 | 0.00 | 0.00 | 0.00 | 75 | 1013.4 |
| 20260903222952 | 69 | 212 | 10.0 | 22.0 | 0.00 | 0.00 | 0.00 | 75 | 1013.3 |
| 20260903222436 | 69 | 242 | 9.0 | 22.0 | 0.00 | 0.00 | 0.00 | 74 | 1013.3 |
| 20260903221952 | 70 | 228 | 9.0 | 19.0 | 0.00 | 0.00 | 0.00 | 74 | 1013.4 |
| 20260903221418 | 70 | 218 | 7.0 | 15.0 | 0.00 | 0.00 | 0.00 | 74 | 1013.5 |
| 20260903220927 | 70 | 226 | 6.0 | 15.0 | 0.00 | 0.00 | 0.00 | 74 | 1013.5 |
| 20260903220429 | 70 | 206 | 8.0 | 16.0 | 0.00 | 0.00 | 0.00 | 74 | 1013.6 |
| 20260903215935 | 70 | 306 | 8.0 | 16.0 | 0.00 | 0.00 | 0.00 | 73 | 1013.5 |
| 20260903215451 | 71 | 242 | 8.0 | 15.0 | 0.00 | 0.00 | 0.00 | 74 | 1013.6 |
| 20260903214918 | 70 | 251 | 7.0 | 16.0 | 0.00 | 0.00 | 0.00 | 75 | 1013.7 |
| 20260903214447 | 70 | 242 | 9.0 | 16.0 | 0.00 | 0.00 | 0.00 | 75 | 1013.7 |
| 20260903213937 | 69 | 239 | 5.0 | 17.0 | 0.00 | 0.00 | 0.00 | 76 | 1013.7 |
| 20260903213423 | 69 | 282 | 8.0 | 17.0 | 0.00 | 0.00 | 0.00 | 75 | 1013.7 |
| 20260903212927 | 69 | 213 | 4.0 | 17.0 | 0.00 | 0.00 | 0.00 | 75 | 1013.8 |
| 20260903212434 | 69 | 282 | 8.0 | 17.0 | 0.00 | 0.00 | 0.00 | 75 | 1013.8 |
| 20260903211920 | 69 | 221 | 6.0 | 15.0 | 0.00 | 0.00 | 0.00 | 74 | 1013.9 |
| 20260903211426 | 69 | 256 | 6.0 | 15.0 | 0.00 | 0.00 | 0.00 | 74 | 1013.9 |
| 20260903210932 | 69 | 192 | 7.0 | 17.0 | 0.00 | 0.00 | 0.00 | 73 | 1014.0 |
| 20260903210420 | 70 | 249 | 7.0 | 17.0 | 0.00 | 0.00 | 0.00 | 73 | 1014.0 |
| 20260903205923 | 70 | 194 | 6.0 | 13.0 | 0.00 | 0.00 | 0.00 | 73 | 1014.0 |
| 20260903205425 | 70 | 234 | 7.0 | 13.0 | 0.00 | 0.00 | 0.00 | 73 | 1014.1 |
| 20260903204931 | 70 | 261 | 7.0 | 13.0 | 0.00 | 0.00 | 0.00 | 72 | 1014.0 |
| 20260903204417 | 70 | 227 | 5.0 | 12.0 | 0.00 | 0.00 | 0.00 | 73 | 1014.1 |
| 20260903203944 | 70 | 217 | 5.0 | 18.0 | 0.00 | 0.00 | 0.00 | 73 | 1014.0 |
| 20260903203432 | 69 | 249 | 5.0 | 16.0 | 0.00 | 0.00 | 0.00 | 74 | 1014.1 |
| 20260903202917 | 69 | 235 | 6.0 | 16.0 | 0.00 | 0.00 | 0.00 | 74 | 1014.1 |
| 20260903202426 | 69 | 250 | 7.0 | 15.0 | 0.00 | 0.00 | 0.00 | 75 | 1014.1 |
| 20260903201931 | 69 | 259 | 7.0 | 16.0 | 0.00 | 0.00 | 0.00 | 74 | 1014.0 |
| 20260903201445 | 69 | 278 | 8.0 | 15.0 | 0.00 | 0.00 | 0.00 | 74 | 1014.1 |
| 20260903200932 | 69 | 233 | 7.0 | 18.0 | 0.00 | 0.00 | 0.00 | 74 | 1014.1 |
| 20260903200417 | 69 | 211 | 8.0 | 13.0 | 0.00 | 0.00 | 0.00 | 74 | 1014.1 |
| 20260903195919 | 69 | 251 | 4.0 | 17.0 | 0.00 | 0.00 | 0.00 | 75 | 1014.2 |
| 20260903195424 | 69 | 242 | 10.0 | 17.0 | 0.00 | 0.00 | 0.00 | 74 | 1014.2 |
| 20260903194930 | 69 | 221 | 3.0 | 14.0 | 0.00 | 0.00 | 0.00 | 75 | 1014.2 |
| 20260903194417 | 68 | 240 | 5.0 | 16.0 | 0.00 | 0.00 | 0.00 | 76 | 1014.2 |
| 20260903193923 | 68 | 282 | 7.0 | 15.0 | 0.00 | 0.00 | 0.00 | 75 | 1014.5 |
| 20260903193431 | 68 | 226 | 9.0 | 15.0 | 0.00 | 0.00 | 0.00 | 75 | 1014.4 |
| 20260903192916 | 68 | 94 | 7.0 | 14.0 | 0.00 | 0.00 | 0.00 | 75 | 1014.6 |
| 20260903192425 | 68 | 242 | 8.0 | 13.0 | 0.00 | 0.00 | 0.00 | 74 | 1014.6 |
| 20260903191934 | 69 | 216 | 6.0 | 13.0 | 0.00 | 0.00 | 0.00 | 73 | 1014.7 |
| 20260903191421 | 69 | 242 | 6.0 | 12.0 | 0.00 | 0.00 | 0.00 | 73 | 1014.7 |
| 20260903190927 | 69 | 261 | 8.0 | 16.0 | 0.00 | 0.00 | 0.00 | 73 | 1014.7 |
| 20260903190457 | 69 | 203 | 5.0 | 16.0 | 0.00 | 0.00 | 0.00 | 73 | 1014.7 |
| 20260903185934 | 69 | 230 | 5.0 | 12.0 | 0.00 | 0.00 | 0.00 | 73 | 1014.7 |
| 20260903185420 | 68 | 270 | 5.0 | 13.0 | 0.00 | 0.00 | 0.00 | 73 | 1014.8 |
| 20260903184927 | 68 | 235 | 4.0 | 17.0 | 0.00 | 0.00 | 0.00 | 74 | 1014.9 |
| 20260903184431 | 68 | 203 | 6.0 | 12.0 | 0.00 | 0.00 | 0.00 | 74 | 1014.9 |
| 20260903183936 | 68 | 219 | 5.0 | 12.0 | 0.00 | 0.00 | 0.00 | 74 | 1014.9 |
| 20260903183446 | 68 | 194 | 6.0 | 11.0 | 0.00 | 0.00 | 0.00 | 74 | 1014.8 |
| 20260903182932 | 68 | 215 | 4.0 | 10.0 | 0.00 | 0.00 | 0.00 | 74 | 1014.9 |
| 20260903182439 | 68 | 246 | 6.0 | 13.0 | 0.00 | 0.00 | 0.00 | 74 | 1014.9 |
| 20260903181947 | 67 | 186 | 7.0 | 15.0 | 0.00 | 0.00 | 0.00 | 74 | 1014.9 |
| 20260903181434 | 67 | 177 | 8.0 | 16.0 | 0.00 | 0.00 | 0.00 | 73 | 1014.9 |
| 20260903180919 | 67 | 236 | 9.0 | 16.0 | 0.00 | 0.00 | 0.00 | 73 | 1014.8 |
| 20260903180424 | 67 | 239 | 7.0 | 16.0 | 0.00 | 0.00 | 0.00 | 73 | 1014.7 |
| 20260903175929 | 67 | 216 | 9.0 | 16.0 | 0.00 | 0.00 | 0.00 | 73 | 1014.7 |
| 20260903175435 | 68 | 232 | 8.0 | 17.0 | 0.00 | 0.00 | 0.00 | 73 | 1014.7 |
| 20260903174923 | 68 | 231 | 9.0 | 17.0 | 0.00 | 0.00 | 0.00 | 73 | 1014.7 |
| 20260903174428 | 68 | 213 | 5.0 | 13.0 | 0.00 | 0.00 | 0.00 | 73 | 1014.7 |
| 20260903173932 | 68 | 206 | 6.0 | 11.0 | 0.00 | 0.00 | 0.00 | 74 | 1014.6 |
| 20260903173439 | 67 | 222 | 5.0 | 12.0 | 0.00 | 0.00 | 0.00 | 74 | 1014.6 |
| 20260903172922 | 67 | 209 | 4.0 | 12.0 | 0.00 | 0.00 | 0.00 | 74 | 1014.6 |
| 20260903172425 | 67 | 186 | 3.0 | 14.0 | 0.00 | 0.00 | 0.00 | 74 | 1014.7 |
| 20260903171935 | 67 | 196 | 6.0 | 12.0 | 0.00 | 0.00 | 0.00 | 74 | 1014.7 |
| 20260903171419 | 67 | 207 | 5.0 | 14.0 | 0.00 | 0.00 | 0.00 | 75 | 1014.7 |
| 20260903170924 | 66 | 222 | 5.0 | 14.0 | 0.00 | 0.00 | 0.00 | 75 | 1014.7 |